Home > Weather > Niamey > Past weeks

Flag for Niger Weather for the Past 2 Weeks in Niamey, Niger

Now
100 °F

Clear.


Feels Like: 100 °F
Forecast: 88 / 109 °F
Wind: 16 mph from Southwest

Location: Niamey-Aero

Current Time: May 6, 2016 at 11:27:30 AM

Latest Report: May 6, 2016 at 11:00 AM


Visibility: 4 mi

Pressure: 29.83 "Hg

Humidity: 25%

Dew Point: 59 °F

Location of NiameyLocation

Historic Weather in Niamey — Graph

°F

Niamey Temperature Yesterday

Maximum temperature yesterday: 109 °F (at 5:00 PM)
Minimum temperature yesterday: 90 °F (at 7:00 AM)
Average temperature yesterday: 99 °F

High & Low Weather Summary for the Past Weeks

 TemperatureHumidityPressure
High111 °F (Apr 24, 4:00 PM)52% (Apr 27, 7:00 AM)29.89 "Hg (Apr 27, 7:00 AM)
Low81 °F (Apr 23, 5:00 AM)5% (Apr 23, 6:00 PM)29.62 "Hg (May 2, 6:00 PM)
Average99 °F21%29.75 "Hg
* Reported Apr 21 10:00 AM — May 6 10:00 AM, Niamey, Weather by CustomWeather, © 2016

Note: Actual official high and low records may vary slightly from our data, if they occured in-between our weather recording intervals... More about our weather records

Advertising

Niamey Weather History for the Previous 24 Hours

Scroll right to see more
 ConditionsComfort  
Time TempWeatherWind HumidityBarometerVisibility
10:00 AM
Fri, May 6
99 °FClear.17 mph29%29.83 "Hg4 mi
9:00 AM95 °FClear.14 mph34%29.83 "Hg5 mi
8:00 AM93 °FSunny.12 mph36%29.80 "Hg10 mi
7:00 AM91 °FSunny.8 mph36%29.80 "Hg10 mi
6:00 AM91 °FClear.9 mph36%29.77 "Hg10 mi
5:00 AM93 °FClear.8 mph32%29.77 "Hg10 mi
4:00 AM93 °FClear.7 mph30%29.77 "Hg10 mi
3:00 AM93 °FClear.8 mph26%29.77 "Hg10 mi
2:00 AM95 °FClear.5 mph23%29.77 "Hg10 mi
1:00 AM95 °FClear.2 mph23%29.80 "Hg10 mi
12:00 AM97 °FExtremely hot.2 mph22%29.80 "HgN/A
11:00 PM
Thu, May 5
99 °FClear.1 mph19%29.80 "Hg10 mi
10:00 PM100 °FClear.3 mph18%29.80 "Hg5 mi
9:00 PM102 °FClear.2 mph17%29.77 "Hg5 mi
8:00 PM104 °FClear.2 mph15%29.74 "Hg5 mi
7:00 PM106 °FPassing clouds.3 mph14%29.74 "Hg5 mi
6:00 PM108 °FPassing clouds.5 mph14%29.71 "HgN/A
5:00 PM109 °FPassing clouds.9 mph12%29.71 "Hg5 mi
4:00 PM108 °FPassing clouds.2 mph15%29.74 "Hg5 mi
3:00 PM108 °FPassing clouds.6 mph17%29.77 "Hg5 mi
2:00 PM106 °FClear.6 mph19%29.80 "Hg5 mi
1:00 PM104 °FClear.10 mph21%29.83 "Hg5 mi
12:00 PM100 °FClear.12 mph27%29.86 "Hg5 mi
11:00 AM99 °FClear.14 mph29%29.86 "Hg5 mi
Weather by CustomWeather, © 2016

See weather overviewHow to use our weather pages